Regional Weather Roundup
Issued by NWS Kansas City/Pleasant Hill, MO

Home | Current Version | Previous Version | Graphics & Text | Print | Product List | Glossary Off
Versions: 1 2 3 4 5 6 7 8 9 10 11 12 13 14 15 16 17 18 19 20 21 22 23 24 25 26 27 28 29 30 31 32 33 34 35 36 37 38 39 40 41 42 43 44 45 46 47 48 49 50

000
ASUS43 KEAX 211504
RWREAX

WEATHER ROUNDUP FOR EASTERN KANSAS AND NORTHWEST MISSOURI
NATIONAL WEATHER SERVICE KANSAS CITY/PLEASANT HILL MO
1000 AM CDT THU AUG 21 2014

KSZ040-057-103>105-MOZ028-029-037-043-211600-
...KANSAS CITY METROPOLITAN AREA...

CITY           SKY/WX    TMP DP  RH WIND       PRES   REMARKS
K.C. INTL      PTSUNNY   82  72  71 SW16G23   29.91S
K.C. DOWNTOWN  MOSUNNY   86  71  60 SW17      29.91S HX  91
LEES SUMMIT    SUNNY     83  71  67 SW16G25   29.94S
OLATHE - IXD   SUNNY     83  71  67 S20G28    29.94R
OLATHE - OJC   SUNNY     82  71  69 S16       29.93S
LAWRENCE       MOSUNNY   87  71  58 S9        29.91R HX  93

$$

MOZ001>008-011>017-020>025-030>033-038>040-044>046-053-054-211600-
...NORTHERN AND CENTRAL MISSOURI...

CITY           SKY/WX    TMP DP  RH WIND       PRES   REMARKS
ST. JOSEPH     PTSUNNY   81  73  76 SW8       29.89R
MOSBY          MOSUNNY   82  70  65 S12       29.91S
WHITEMAN AFB   SUNNY     82  68  62 SW17G24   29.95S
CLINTON        SUNNY     84  73  70 S10G17    29.97F HX  91
SEDALIA        SUNNY     84  71  65 SW14      29.97S
WARSAW         NOT AVBL
MARSHALL       MOSUNNY   84  73  70 SW13G18   29.95S HX  91
CHILLICOTHE      N/A     82  72  71 S9        29.91S
MOBERLY        SUNNY     82  70  65 SW13G18   29.97R
KIRKSVILLE     SUNNY     82  72  71 SW13G22   29.94R

$$

MOZ041-047>049-056>058-063>065-088>090-097-211600-
...EASTERN AND SOUTHERN MISSOURI...

CITY           SKY/WX    TMP DP  RH WIND       PRES   REMARKS
ST. LOUIS INTL PTSUNNY   84  72  67 SW12      30.01S
SPIRIT OF STL  MOSUNNY   83  72  69 SW14      29.99S
COLUMBIA       SUNNY     82  73  74 SW13      29.99R
JEFFERSON CITY SUNNY     82  72  71 S7        29.98S
MEXICO         SUNNY     82  75  78 SW15G23   29.98R
ROLLA          SUNNY     82  71  69 SW13      30.03R
LEBANON        SUNNY     86  70  58 SW16G23   30.05R HX  90
OSAGE BEACH    SUNNY     84  72  65 SW10      30.01R
SPRINGFIELD    SUNNY     84  70  62 SW15      30.03S
BRANSON        SUNNY     86  72  62 SW10G20   30.07S HX  92
NEVADA         SUNNY     84  72  65 SW12G21   29.99S
JOPLIN         SUNNY     85  71  63 SW18G26   30.01R HX  90
WEST PLAINS    SUNNY     83  70  64 SW9G20    30.09R

$$

IAZ060-094-KSZ022-034>040-054-083-096-NEZ052-066-093-211600-
...KANSAS...SOUTHEAST NEBRASKA AND IOWA...

CITY           SKY/WX    TMP DP  RH WIND       PRES   REMARKS
TOPEKA         SUNNY     85  71  63 S9G18     29.90R HX  90
MANHATTAN      SUNNY     88  69  53 SW15G24   29.86S HX  92
EMPORIA        SUNNY     85  70  60 S21       29.92S
CHANUTE        SUNNY     85  70  60 S20G26    29.97R
WICHITA        SUNNY     85  67  54 S20G28    29.92S
OMAHA          CLOUDY    79  69  71 E6        29.82R
LINCOLN        LGT RAIN  75  69  81 S13       29.83R
FALLS CITY     CLOUDY    81  71  71 S6        29.87F
LAMONI         CLOUDY    79  71  76 SW15      29.89S
DES MOINES     CLOUDY    82  70  66 SW7       29.86R

$$



USA.gov is the U.S. government's official web portal to all federal, state and local government web resources and services.